TimeEDT,TemperatureF,Dew PointF,Humidity,Sea Level PressureIn,VisibilityMPH,Wind Direction,Wind SpeedMPH,Gust SpeedMPH,PrecipitationIn,Events,Conditions,WindDirDegrees,DateUTC
12:15 AM,73.4,68.0,83,30.07,10.0,East,5.8,-,N/A,,Clear,90,2013-06-01 04:15:00
12:35 AM,73.4,68.0,83,30.07,10.0,East,6.9,-,N/A,,Clear,80,2013-06-01 04:35:00
12:55 AM,73.4,68.0,83,30.06,10.0,East,8.1,-,N/A,,Clear,80,2013-06-01 04:55:00
1:15 AM,73.4,68.0,83,30.05,10.0,East,8.1,-,N/A,,Clear,80,2013-06-01 05:15:00
1:35 AM,73.4,68.0,83,30.05,10.0,East,8.1,-,N/A,,Clear,80,2013-06-01 05:35:00
1:55 AM,73.4,68.0,83,30.04,10.0,East,6.9,-,N/A,,Clear,90,2013-06-01 05:55:00
2:15 AM,71.6,68.0,88,30.04,10.0,East,5.8,-,N/A,,Clear,100,2013-06-01 06:15:00
2:35 AM,71.6,68.0,88,30.03,10.0,East,5.8,-,N/A,,Clear,80,2013-06-01 06:35:00
2:55 AM,71.6,69.8,94,30.03,10.0,East,6.9,-,N/A,,Clear,80,2013-06-01 06:55:00
3:15 AM,71.6,69.8,94,30.02,10.0,East,5.8,-,N/A,,Clear,80,2013-06-01 07:15:00
3:35 AM,71.6,69.8,94,30.02,10.0,East,6.9,-,N/A,,Mostly Cloudy,80,2013-06-01 07:35:00
3:55 AM,73.4,69.8,88,30.02,10.0,East,6.9,-,N/A,,Overcast,80,2013-06-01 07:55:00
4:15 AM,73.4,69.8,88,30.02,10.0,East,5.8,-,N/A,,Overcast,80,2013-06-01 08:15:00
4:35 AM,73.4,69.8,88,30.01,10.0,East,6.9,-,N/A,,Mostly Cloudy,80,2013-06-01 08:35:00
4:55 AM,71.6,69.8,94,30.01,10.0,East,5.8,-,N/A,,Scattered Clouds,80,2013-06-01 08:55:00
5:15 AM,71.6,69.8,94,30.01,10.0,East,6.9,-,N/A,,Mostly Cloudy,80,2013-06-01 09:15:00
5:35 AM,71.6,69.8,94,30.02,10.0,East,8.1,-,N/A,,Scattered Clouds,80,2013-06-01 09:35:00
5:50 AM,73.4,69.8,88,30.03,12.0,East,8.1,-,N/A,,Partly Cloudy,80,2013-06-01 09:50:00
5:55 AM,71.6,69.8,94,30.03,10.0,East,8.1,-,N/A,,Clear,80,2013-06-01 09:55:00
6:15 AM,71.6,69.8,94,30.03,10.0,East,6.9,-,N/A,,Clear,80,2013-06-01 10:15:00
6:35 AM,71.6,69.8,94,30.03,10.0,ENE,6.9,-,N/A,,Scattered Clouds,70,2013-06-01 10:35:00
6:50 AM,73.4,71.6,94,30.04,10.0,ENE,6.9,-,N/A,,Scattered Clouds,70,2013-06-01 10:50:00
7:50 AM,75.2,71.6,89,30.05,12.0,East,10.4,-,N/A,,Scattered Clouds,80,2013-06-01 11:50:00
8:50 AM,78.8,69.8,74,30.06,12.0,East,11.5,-,N/A,,Mostly Cloudy,100,2013-06-01 12:50:00
9:50 AM,80.6,69.8,70,30.05,12.0,ESE,11.5,-,N/A,,Mostly Cloudy,120,2013-06-01 13:50:00
10:50 AM,82.4,69.8,66,30.05,15.0,ESE,11.5,-,N/A,,Overcast,120,2013-06-01 14:50:00
11:50 AM,82.4,69.8,66,30.04,15.0,East,12.7,-,N/A,,Overcast,100,2013-06-01 15:50:00
12:50 PM,84.2,69.8,62,30.04,15.0,ESE,9.2,-,N/A,,Overcast,110,2013-06-01 16:50:00
1:50 PM,87.8,69.8,55,30.02,15.0,ENE,6.9,-,N/A,,Overcast,70,2013-06-01 17:50:00
2:50 PM,86.0,68.0,55,30.00,15.0,ESE,4.6,-,N/A,,Mostly Cloudy,110,2013-06-01 18:50:00
3:50 PM,87.8,69.8,55,29.98,15.0,East,9.2,-,N/A,,Mostly Cloudy,100,2013-06-01 19:50:00
4:50 PM,86.0,69.8,58,29.96,12.0,ESE,11.5,18.4,N/A,,Overcast,110,2013-06-01 20:50:00
5:50 PM,80.6,71.6,74,29.97,10.0,ESE,11.5,-,N/A,,Mostly Cloudy,120,2013-06-01 21:50:00
6:50 PM,78.8,71.6,78,29.99,10.0,SE,9.2,-,N/A,,Mostly Cloudy,140,2013-06-01 22:50:00
7:50 PM,75.2,71.6,89,30.00,10.0,SE,11.5,-,N/A,,Mostly Cloudy,140,2013-06-01 23:50:00
8:50 PM,75.2,71.6,89,30.03,8.0,South,11.5,-,N/A,,Mostly Cloudy,180,2013-06-02 00:50:00
9:50 PM,73.4,71.6,94,30.03,8.0,Calm,Calm,-,N/A,,Mostly Cloudy,0,2013-06-02 01:50:00
10:55 PM,73.4,69.8,88,30.03,10.0,East,6.9,-,N/A,Rain,Light Rain,90,2013-06-02 02:55:00
11:15 PM,71.6,69.8,94,30.03,10.0,SE,3.5,-,N/A,,Clear,130,2013-06-02 03:15:00
11:35 PM,71.6,69.8,94,30.03,10.0,East,3.5,-,N/A,Rain,Light Rain,90,2013-06-02 03:35:00
11:55 PM,71.6,69.8,94,30.03,10.0,NE,8.1,-,N/A,Rain,Light Rain,40,2013-06-02 03:55:00